Location: Oshawa
(43.9000°N, 78.8670°W)
Time: 11:42:40
(UTC-04:00)

Cosmos 1821 Rocket - Visible Passes

Search period start: 22 August 2014 00:00
Search period end: 01 September 2014 00:00
Orbit: 947 x 1004 km, 82.9° (Epoch: 22 August)

Date Brightness Start Highest point End Pass type
(mag) Time Alt. Az. Time Alt. Az. Time Alt. Az.
22 Aug 5.6 21:26:37 10° NNW 21:32:22 37° W 21:38:07 10° SSW visible
23 Aug 6.5 21:52:51 10° NW 21:57:25 21° W 22:01:59 10° SW visible
24 Aug 4.4 20:31:42 10° NNW 20:38:06 75° W 20:44:26 10° S visible
24 Aug 7.0 22:20:35 10° WNW 22:22:18 11° WNW 22:24:00 10° W visible
25 Aug 5.4 20:57:24 10° NNW 21:03:21 43° W 21:09:17 10° SSW visible
26 Aug 6.4 21:23:29 10° NNW 21:28:27 24° W 21:33:23 10° SW visible
27 Aug 6.9 21:50:31 10° NW 21:53:22 13° WNW 21:56:12 10° WSW visible
28 Aug 5.2 20:28:12 10° NNW 20:34:19 49° W 20:40:23 10° SSW visible
29 Aug 6.2 20:54:10 10° NNW 20:59:27 28° W 21:04:42 10° SW visible
30 Aug 6.9 21:20:50 10° NW 21:24:25 16° W 21:27:59 10° WSW visible
